| time (UTC) | temp C | wind direction | speed KPH | gust KPH | rain 1hr cm | rain 24hr cm | rain mn cm | humidity % | barometer mb |
| 20260505020030 | 14 | 360 | 11.3 | 22.5 | 0.00 | 0.00 | 0.00 | 53 | 1009.8 |
| 20260505015513 | 14 | 360 | 11.3 | 22.5 | 0.00 | 0.00 | 0.00 | 53 | 1009.7 |
| 20260505015013 | 14 | 360 | 12.9 | 22.5 | 0.00 | 0.00 | 0.00 | 54 | 1009.6 |
| 20260505014534 | 14 | 360 | 12.9 | 24.1 | 0.00 | 0.00 | 0.00 | 54 | 1009.5 |
| 20260505014012 | 14 | 360 | 12.9 | 24.1 | 0.00 | 0.00 | 0.00 | 54 | 1009.4 |
| 20260505013516 | 14 | 360 | 11.3 | 22.5 | 0.00 | 0.00 | 0.00 | 53 | 1009.5 |
| 20260505013029 | 14 | 360 | 12.9 | 20.9 | 0.00 | 0.00 | 0.00 | 53 | 1009.4 |
| 20260505012512 | 14 | 360 | 11.3 | 19.3 | 0.00 | 0.00 | 0.00 | 53 | 1009.4 |
| 20260505012013 | 15 | 360 | 11.3 | 20.9 | 0.00 | 0.00 | 0.00 | 53 | 1009.4 |
| 20260505011532 | 15 | 360 | 11.3 | 20.9 | 0.00 | 0.00 | 0.00 | 53 | 1009.3 |
| 20260505011012 | 14 | 227 | 11.3 | 19.3 | 0.00 | 0.00 | 0.00 | 52 | 1009.3 |
| 20260505010513 | 15 | 249 | 11.3 | 19.3 | 0.00 | 0.00 | 0.00 | 53 | 1009.2 |
| 20260505010029 | 15 | 360 | 8.0 | 19.3 | 0.00 | 0.00 | 0.00 | 52 | 1009.2 |
| 20260505005511 | 15 | 225 | 11.3 | 19.3 | 0.00 | 0.00 | 0.00 | 52 | 1009.0 |
| 20260505005011 | 15 | 360 | 11.3 | 19.3 | 0.00 | 0.00 | 0.00 | 52 | 1009.0 |
| 20260505004533 | 15 | 360 | 12.9 | 19.3 | 0.00 | 0.00 | 0.00 | 51 | 1009.0 |
| 20260505004011 | 15 | 360 | 11.3 | 19.3 | 0.00 | 0.00 | 0.00 | 50 | 1008.9 |
| 20260505003513 | 15 | 360 | 11.3 | 19.3 | 0.00 | 0.00 | 0.00 | 50 | 1008.8 |
| 20260505003029 | 15 | 360 | 8.0 | 16.1 | 0.00 | 0.00 | 0.00 | 49 | 1008.7 |
| 20260505002511 | 15 | 360 | 8.0 | 14.5 | 0.00 | 0.00 | 0.00 | 48 | 1008.6 |
| 20260505002010 | 15 | 360 | 6.4 | 17.7 | 0.00 | 0.00 | 0.00 | 48 | 1008.6 |
| 20260505001530 | 15 | 360 | 8.0 | 17.7 | 0.00 | 0.00 | 0.00 | 47 | 1008.4 |
| 20260505001013 | 16 | 360 | 8.0 | 17.7 | 0.00 | 0.00 | 0.00 | 48 | 1008.5 |
| 20260505000517 | 16 | 360 | 8.0 | 16.1 | 0.00 | 0.00 | 0.00 | 47 | 1008.3 |
| 20260505000038 | 16 | 237 | 6.4 | 19.3 | 0.00 | 0.00 | 0.00 | 47 | 1008.2 |
| 20260504235513 | 16 | 232 | 8.0 | 19.3 | 0.00 | 0.00 | 0.00 | 46 | 1008.1 |
| 20260504235013 | 16 | 282 | 9.7 | 17.7 | 0.00 | 0.00 | 0.00 | 45 | 1008.0 |
| 20260504234534 | 16 | 230 | 6.4 | 16.1 | 0.00 | 0.00 | 0.00 | 45 | 1008.0 |
| 20260504234011 | 17 | 212 | 8.0 | 16.1 | 0.00 | 0.00 | 0.00 | 44 | 1007.9 |
| 20260504233516 | 17 | 233 | 8.0 | 14.5 | 0.00 | 0.00 | 0.00 | 44 | 1007.9 |
| 20260504233038 | 17 | 248 | 6.4 | 17.7 | 0.00 | 0.00 | 0.00 | 44 | 1007.9 |
| 20260504232513 | 17 | 258 | 6.4 | 20.9 | 0.00 | 0.00 | 0.00 | 43 | 1007.9 |
| 20260504232012 | 17 | 252 | 8.0 | 20.9 | 0.00 | 0.00 | 0.00 | 43 | 1007.8 |
| 20260504231528 | 17 | 360 | 8.0 | 19.3 | 0.00 | 0.00 | 0.00 | 43 | 1007.7 |
| 20260504231012 | 17 | 286 | 11.3 | 22.5 | 0.00 | 0.00 | 0.00 | 43 | 1007.6 |
| 20260504230512 | 18 | 259 | 9.7 | 27.4 | 0.00 | 0.00 | 0.00 | 42 | 1007.6 |
| 20260504230034 | 18 | 254 | 9.7 | 37.0 | 0.00 | 0.00 | 0.00 | 41 | 1007.4 |
| 20260504225511 | 18 | 252 | 12.9 | 37.0 | 0.00 | 0.00 | 0.00 | 40 | 1007.3 |
| 20260504225012 | 18 | 233 | 17.7 | 35.4 | 0.00 | 0.00 | 0.00 | 39 | 1007.3 |
| 20260504224531 | 19 | 249 | 14.5 | 35.4 | 0.00 | 0.00 | 0.00 | 40 | 1007.2 |
| 20260504224012 | 19 | 257 | 14.5 | 37.0 | 0.00 | 0.00 | 0.00 | 39 | 1007.3 |
| 20260504223511 | 19 | 279 | 16.1 | 38.6 | 0.00 | 0.00 | 0.00 | 38 | 1007.3 |
| 20260504223049 | 19 | 263 | 14.5 | 38.6 | 0.00 | 0.00 | 0.00 | 39 | 1007.2 |
| 20260504222513 | 19 | 259 | 11.3 | 25.7 | 0.00 | 0.00 | 0.00 | 39 | 1007.2 |
| 20260504222015 | 19 | 250 | 12.9 | 29.0 | 0.00 | 0.00 | 0.00 | 40 | 1007.2 |
| 20260504221528 | 19 | 258 | 16.1 | 29.0 | 0.00 | 0.00 | 0.00 | 39 | 1007.2 |
| 20260504221012 | 19 | 247 | 11.3 | 30.6 | 0.00 | 0.00 | 0.00 | 40 | 1007.1 |
| 20260504220513 | 20 | 267 | 16.1 | 30.6 | 0.00 | 0.00 | 0.00 | 39 | 1007.2 |
| 20260504220031 | 20 | 257 | 16.1 | 32.2 | 0.00 | 0.00 | 0.00 | 38 | 1007.1 |
| 20260504215511 | 19 | 265 | 14.5 | 32.2 | 0.00 | 0.00 | 0.00 | 39 | 1007.1 |
| 20260504215012 | 19 | 294 | 16.1 | 38.6 | 0.00 | 0.00 | 0.00 | 38 | 1007.2 |
| 20260504214531 | 19 | 281 | 16.1 | 38.6 | 0.00 | 0.00 | 0.00 | 39 | 1007.2 |
| 20260504214011 | 19 | 248 | 9.7 | 33.8 | 0.00 | 0.00 | 0.00 | 38 | 1007.1 |
| 20260504213516 | 20 | 261 | 14.5 | 43.5 | 0.00 | 0.00 | 0.00 | 37 | 1007.1 |
| 20260504213042 | 20 | 233 | 22.5 | 43.5 | 0.00 | 0.00 | 0.00 | 36 | 1007.2 |
| 20260504212513 | 20 | 251 | 16.1 | 43.5 | 0.00 | 0.00 | 0.00 | 38 | 1007.1 |
| 20260504212015 | 20 | 248 | 19.3 | 43.5 | 0.00 | 0.00 | 0.00 | 37 | 1007.1 |
| 20260504211533 | 20 | 262 | 16.1 | 37.0 | 0.00 | 0.00 | 0.00 | 38 | 1007.1 |
| 20260504211012 | 20 | 280 | 16.1 | 43.5 | 0.00 | 0.00 | 0.00 | 37 | 1007.1 |
| 20260504210512 | 20 | 288 | 20.9 | 43.5 | 0.00 | 0.00 | 0.00 | 37 | 1007.0 |
| 20260504210033 | 20 | 279 | 16.1 | 33.8 | 0.00 | 0.00 | 0.00 | 37 | 1007.1 |
| 20260504205513 | 20 | 241 | 16.1 | 46.7 | 0.00 | 0.00 | 0.00 | 38 | 1007.1 |
| 20260504205011 | 20 | 286 | 22.5 | 46.7 | 0.00 | 0.00 | 0.00 | 38 | 1007.0 |
| 20260504204541 | 20 | 269 | 19.3 | 46.7 | 0.00 | 0.00 | 0.00 | 38 | 1006.8 |
| 20260504204014 | 20 | 284 | 17.7 | 41.8 | 0.00 | 0.00 | 0.00 | 39 | 1006.9 |
| 20260504203512 | 20 | 228 | 16.1 | 33.8 | 0.00 | 0.00 | 0.00 | 38 | 1006.9 |
| 20260504203033 | 19 | 227 | 16.1 | 37.0 | 0.00 | 0.00 | 0.00 | 38 | 1006.9 |
| 20260504202511 | 20 | 259 | 17.7 | 41.8 | 0.00 | 0.00 | 0.00 | 38 | 1006.9 |
| 20260504202012 | 20 | 278 | 19.3 | 41.8 | 0.00 | 0.00 | 0.00 | 38 | 1006.8 |
| 20260504201531 | 20 | 261 | 20.9 | 49.9 | 0.00 | 0.00 | 0.00 | 38 | 1007.0 |
| 20260504201016 | 20 | 277 | 16.1 | 49.9 | 0.00 | 0.00 | 0.00 | 37 | 1006.9 |
| 20260504200513 | 20 | 264 | 19.3 | 41.8 | 0.00 | 0.00 | 0.00 | 37 | 1006.9 |
| 20260504200031 | 20 | 275 | 20.9 | 46.7 | 0.00 | 0.00 | 0.00 | 36 | 1007.0 |
| 20260504195512 | 20 | 318 | 20.9 | 48.3 | 0.00 | 0.00 | 0.00 | 37 | 1006.9 |
| 20260504195016 | 20 | 360 | 25.7 | 48.3 | 0.00 | 0.00 | 0.00 | 37 | 1006.9 |
| 20260504194529 | 20 | 271 | 29.0 | 48.3 | 0.00 | 0.00 | 0.00 | 38 | 1007.0 |
| 20260504194011 | 20 | 275 | 20.9 | 46.7 | 0.00 | 0.00 | 0.00 | 39 | 1007.0 |
| 20260504193512 | 20 | 257 | 22.5 | 49.9 | 0.00 | 0.00 | 0.00 | 39 | 1006.9 |
| 20260504193028 | 20 | 248 | 20.9 | 49.9 | 0.00 | 0.00 | 0.00 | 39 | 1007.0 |
| 20260504192511 | 20 | 241 | 25.7 | 49.9 | 0.00 | 0.00 | 0.00 | 38 | 1007.0 |
| 20260504192013 | 19 | 261 | 17.7 | 38.6 | 0.00 | 0.00 | 0.00 | 39 | 1007.0 |
| 20260504191528 | 19 | 249 | 14.5 | 49.9 | 0.00 | 0.00 | 0.00 | 40 | 1007.1 |
| 20260504191010 | 18 | 269 | 17.7 | 49.9 | 0.00 | 0.00 | 0.00 | 41 | 1007.0 |
| 20260504190514 | 18 | 297 | 16.1 | 41.8 | 0.00 | 0.00 | 0.00 | 42 | 1007.2 |
| 20260504190030 | 17 | 290 | 17.7 | 45.1 | 0.00 | 0.00 | 0.00 | 42 | 1007.3 |
| 20260504185512 | 17 | 284 | 16.1 | 48.3 | 0.00 | 0.00 | 0.00 | 43 | 1007.3 |
| 20260504185012 | 17 | 299 | 24.1 | 48.3 | 0.00 | 0.00 | 0.00 | 43 | 1007.4 |
| 20260504184531 | 17 | 311 | 25.7 | 49.9 | 0.00 | 0.00 | 0.00 | 42 | 1007.3 |
| 20260504184011 | 17 | 264 | 20.9 | 49.9 | 0.00 | 0.00 | 0.00 | 43 | 1007.5 |
| 20260504183513 | 17 | 278 | 19.3 | 41.8 | 0.00 | 0.00 | 0.00 | 42 | 1007.5 |
| 20260504183030 | 17 | 263 | 22.5 | 41.8 | 0.00 | 0.00 | 0.00 | 41 | 1007.4 |
| 20260504182514 | 17 | 290 | 24.1 | 56.3 | 0.00 | 0.00 | 0.00 | 41 | 1007.3 |
| 20260504182011 | 17 | 270 | 22.5 | 56.3 | 0.00 | 0.00 | 0.00 | 42 | 1007.2 |
| 20260504181534 | 17 | 283 | 12.9 | 35.4 | 0.00 | 0.00 | 0.00 | 42 | 1007.3 |
| 20260504181013 | 17 | 277 | 14.5 | 38.6 | 0.00 | 0.00 | 0.00 | 42 | 1007.3 |
| 20260504180513 | 17 | 247 | 19.3 | 38.6 | 0.00 | 0.00 | 0.00 | 40 | 1007.1 |
| 20260504180030 | 17 | 247 | 19.3 | 33.8 | 0.00 | 0.00 | 0.00 | 40 | 1007.2 |
| 20260504175511 | 17 | 270 | 9.7 | 41.8 | 0.00 | 0.00 | 0.00 | 40 | 1007.3 |
| 20260504175012 | 17 | 281 | 16.1 | 41.8 | 0.00 | 0.00 | 0.00 | 41 | 1007.3 |
| 20260504174532 | 17 | 236 | 22.5 | 41.8 | 0.00 | 0.00 | 0.00 | 41 | 1007.3 |
| 20260504174013 | 17 | 221 | 20.9 | 43.5 | 0.00 | 0.00 | 0.00 | 40 | 1007.3 |
| 20260504173512 | 17 | 246 | 25.7 | 43.5 | 0.00 | 0.00 | 0.00 | 40 | 1007.4 |
| 20260504173029 | 17 | 217 | 14.5 | 41.8 | 0.00 | 0.00 | 0.00 | 41 | 1007.3 |
| 20260504172512 | 17 | 269 | 19.3 | 41.8 | 0.00 | 0.00 | 0.00 | 39 | 1007.5 |
| 20260504172013 | 18 | 266 | 20.9 | 40.2 | 0.00 | 0.00 | 0.00 | 39 | 1007.4 |
| 20260504171529 | 18 | 340 | 20.9 | 41.8 | 0.00 | 0.00 | 0.00 | 39 | 1007.2 |
| 20260504171015 | 18 | 248 | 25.7 | 51.5 | 0.00 | 0.00 | 0.00 | 38 | 1007.3 |
| 20260504170511 | 18 | 254 | 24.1 | 54.7 | 0.00 | 0.00 | 0.00 | 38 | 1007.4 |
| 20260504151015 | 16 | 254 | 20.9 | 43.5 | 0.00 | 0.00 | 0.00 | 48 | 1008.0 |
| 20260504150512 | 16 | 241 | 20.9 | 43.5 | 0.00 | 0.00 | 0.00 | 46 | 1008.1 |
| 20260504141012 | 13 | 265 | 19.3 | 37.0 | 0.00 | 0.00 | 0.00 | 53 | 1009.0 |
| 20260504140510 | 13 | 273 | 22.5 | 37.0 | 0.00 | 0.00 | 0.00 | 54 | 1009.0 |
| 20260504130513 | 12 | 242 | 11.3 | 29.0 | 0.00 | 0.00 | 0.00 | 60 | 1009.5 |
| 20260504110512 | 6 | 254 | 16.1 | 29.0 | 0.00 | 0.00 | 0.00 | 72 | 1010.1 |
| 20260504100511 | 4 | 236 | 12.9 | 22.5 | 0.00 | 0.00 | 0.00 | 73 | 1010.0 |
| 20260504081529 | 5 | 265 | 17.7 | 30.6 | 0.00 | 0.00 | 0.00 | 66 | 1009.9 |
| 20260504081012 | 5 | 265 | 14.5 | 27.4 | 0.00 | 0.00 | 0.00 | 66 | 1009.9 |
| 20260504080511 | 5 | 259 | 16.1 | 32.2 | 0.00 | 0.00 | 0.00 | 65 | 1009.8 |
| 20260504050511 | 2 | 254 | 11.3 | 20.9 | 0.00 | 0.00 | 0.00 | 74 | 1009.8 |
| 20260504045511 | 2 | 259 | 12.9 | 20.9 | 0.00 | 0.00 | 0.00 | 74 | 1009.8 |
| 20260504045011 | 2 | 244 | 11.3 | 20.9 | 0.00 | 0.00 | 0.00 | 74 | 1009.8 |
| 20260504044540 | 2 | 282 | 12.9 | 20.9 | 0.00 | 0.00 | 0.00 | 73 | 1009.8 |
| 20260504044010 | 2 | 273 | 11.3 | 17.7 | 0.00 | 0.00 | 0.00 | 72 | 1009.8 |
| 20260504043511 | 2 | 236 | 9.7 | 20.9 | 0.00 | 0.00 | 0.00 | 71 | 1009.7 |
| 20260504043030 | 3 | 254 | 11.3 | 20.9 | 0.00 | 0.00 | 0.00 | 71 | 1009.8 |
| 20260504042512 | 3 | 275 | 12.9 | 20.9 | 0.00 | 0.00 | 0.00 | 72 | 1009.8 |
| 20260504042011 | 3 | 279 | 12.9 | 19.3 | 0.00 | 0.00 | 0.00 | 72 | 1009.7 |
| 20260504041531 | 3 | 268 | 12.9 | 19.3 | 0.00 | 0.00 | 0.00 | 71 | 1009.6 |
| 20260504041013 | 3 | 257 | 11.3 | 19.3 | 0.00 | 0.00 | 0.00 | 71 | 1009.5 |
| 20260504040514 | 3 | 257 | 12.9 | 19.3 | 0.00 | 0.00 | 0.00 | 71 | 1009.5 |
| 20260504040044 | 3 | 248 | 9.7 | 17.7 | 0.00 | 0.00 | 0.00 | 70 | 1009.5 |
| 20260504035511 | 3 | 281 | 8.0 | 17.7 | 0.00 | 0.00 | 0.00 | 70 | 1009.5 |
| 20260504035012 | 3 | 251 | 8.0 | 20.9 | 0.00 | 0.00 | 0.00 | 70 | 1009.5 |
| 20260504034531 | 3 | 271 | 12.9 | 24.1 | 0.00 | 0.00 | 0.00 | 70 | 1009.4 |
| 20260504034011 | 3 | 277 | 12.9 | 24.1 | 0.00 | 0.00 | 0.00 | 70 | 1009.3 |
| 20260504033512 | 3 | 263 | 12.9 | 24.1 | 0.00 | 0.00 | 0.00 | 70 | 1009.3 |
| 20260504033028 | 3 | 271 | 9.7 | 19.3 | 0.00 | 0.00 | 0.00 | 70 | 1009.2 |
| 20260504032511 | 3 | 278 | 12.9 | 19.3 | 0.00 | 0.00 | 0.00 | 70 | 1009.2 |
| 20260504032016 | 3 | 272 | 12.9 | 20.9 | 0.00 | 0.00 | 0.00 | 70 | 1009.2 |
| 20260504031531 | 3 | 286 | 12.9 | 20.9 | 0.00 | 0.00 | 0.00 | 70 | 1009.2 |
| 20260504031011 | 3 | 271 | 14.5 | 20.9 | 0.00 | 0.00 | 0.00 | 70 | 1009.2 |
| 20260504030511 | 3 | 267 | 12.9 | 24.1 | 0.00 | 0.00 | 0.00 | 70 | 1009.2 |
| 20260504030029 | 3 | 281 | 14.5 | 24.1 | 0.00 | 0.00 | 0.00 | 70 | 1009.3 |
| 20260504025510 | 3 | 288 | 14.5 | 25.7 | 0.00 | 0.00 | 0.00 | 70 | 1009.2 |
| 20260504025013 | 3 | 281 | 17.7 | 27.4 | 0.00 | 0.00 | 0.00 | 70 | 1009.2 |
| 20260504024530 | 3 | 265 | 16.1 | 27.4 | 0.00 | 0.00 | 0.00 | 71 | 1009.1 |
| 20260504024013 | 3 | 282 | 14.5 | 24.1 | 0.00 | 0.00 | 0.00 | 70 | 1009.2 |
| 20260504023514 | 3 | 242 | 14.5 | 24.1 | 0.00 | 0.00 | 0.00 | 71 | 1009.1 |
| 20260504023028 | 3 | 256 | 14.5 | 22.5 | 0.00 | 0.00 | 0.00 | 71 | 1009.1 |
| 20260504022514 | 3 | 267 | 14.5 | 22.5 | 0.00 | 0.00 | 0.00 | 71 | 1009.1 |
| 20260504022012 | 3 | 269 | 14.5 | 22.5 | 0.00 | 0.00 | 0.00 | 71 | 1009.2 |
| 20260504021528 | 3 | 252 | 11.3 | 19.3 | 0.00 | 0.00 | 0.00 | 70 | 1009.2 |
| 20260504021012 | 3 | 276 | 11.3 | 16.1 | 0.00 | 0.00 | 0.00 | 69 | 1009.2 |
| 20260504020511 | 3 | 266 | 9.7 | 16.1 | 0.00 | 0.00 | 0.00 | 69 | 1009.2 |